Meteo Giornale » Osservazioni meteo Svezia » Arvidsjaur Airport
ore: 20:50 - Osservazioni Meteo Arvidsjaur Airport
Lat. 65° 35' N Lon. 19° 17' E Alt. 379 metri s.l.m.
13 °C
Pioggia
Temp. 24 Ore
11 °C
15 °C
Sud/Sud-Est
13 Km/h
Dew point 13 °C
Umidità 100 %
Visibilità 4 Km
Il sole sorge alle ore 05:17
Il sole tramonta alle ore 20:09
| Data e Ora | Cielo e Fenomeni | T °C | DP °C | Um. % | Pres. hPa | Vis. km | Vento km/h | |
|---|---|---|---|---|---|---|---|---|
| Oggi h: 20:50 | Pioggia | 13 | 13 | 100 | 1004 | 4 | S/SE 13 | |
| Oggi h: 20:20 | Pioggia | 14 | 14 | 100 | 1003 | 10 | E 11.1 | |
| Oggi h: 19:50 | Coperto | 14 | 14 | 100 | 1004 | 10 | N 5.5 | |
| Oggi h: 19:20 | Coperto | 14 | 14 | 100 | 1004 | 10 | N 3.7 | |
| Oggi h: 18:50 | Molto Nuvoloso | 15 | 15 | 100 | 1003 | 10 | N 5.5 | |
| Oggi h: 18:20 | Molto Nuvoloso | 15 | 15 | 100 | 1003 | 10 | N 5.5 | |
| Oggi h: 17:50 | Molto Nuvoloso | 15 | 15 | 100 | 1003 | 10 | N 5.5 | |
| Oggi h: 17:20 | Pioggia | 15 | 14 | 93 | 1004 | 10 | E 7.4 | |
| Oggi h: 16:50 | Coperto | 15 | 14 | 93 | 1004 | 10 | N 5.5 | |
| Oggi h: 16:20 | Molto Nuvoloso | 15 | 14 | 93 | 1004 | 10 | N 5.5 | |
| Oggi h: 15:50 | Molto Nuvoloso | 15 | 13 | 87 | 1004 | 10 | N 3.7 | |
| Oggi h: 15:20 | Molto Nuvoloso | 15 | 13 | 87 | 1004 | 10 | N 3.7 | |
| Oggi h: 14:50 | Molto Nuvoloso | 15 | 13 | 87 | 1004 | 10 | N 3.7 | |
| Oggi h: 14:20 | Molto Nuvoloso | 15 | 12 | 82 | 1004 | 10 | N 3.7 | |
| Oggi h: 13:50 | Molto Nuvoloso | 15 | 12 | 82 | 1004 | 10 | N 3.7 | |
| Oggi h: 13:20 | Coperto | 14 | 13 | 93 | 1004 | 10 | N 5.5 | |
| Oggi h: 12:50 | Coperto | 14 | 13 | 93 | 1004 | 10 | N 5.5 | |
| Oggi h: 12:20 | Coperto | 14 | 13 | 93 | 1004 | 10 | N 3.7 | |
| Oggi h: 11:50 | Coperto | 13 | 13 | 100 | 1004 | 10 | N 5.5 | |
| Oggi h: 11:20 | Coperto | 13 | 13 | 100 | 1004 | 10 | N 5.5 | |
| Oggi h: 10:50 | Coperto | 13 | 12 | 93 | 1004 | 10 | N 5.5 | |
| Oggi h: 10:20 | Coperto | 13 | 12 | 93 | 1004 | 10 | O/NO 9.3 | |
| Oggi h: 09:50 | Coperto | 12 | 12 | 100 | 1004 | 10 | O/NO 7.4 | |
| Oggi h: 09:20 | Coperto | 12 | 12 | 100 | 1004 | 10 | O/NO 7.4 | |
| Oggi h: 08:50 | Molto Nuvoloso | 12 | 11 | 93 | 1003 | 10 | O/NO 11.1 | |
| Oggi h: 08:20 | Poco Nuvoloso | 11 | 11 | 100 | 1003 | 10 | O/NO 11.1 | |
| Oggi h: 07:50 | Coperto | 11 | 11 | 100 | 1003 | 10 | O/NO 9.3 | |
| Oggi h: 07:20 | Sereno | 12 | 12 | 100 | 1003 | 10 | O/NO 9.3 | |
| Oggi h: 06:50 | Poco Nuvoloso | 12 | 12 | 100 | 1003 | 10 | O/NO 9.3 | |
| Oggi h: 06:20 | Poco Nuvoloso | 12 | 12 | 100 | 1003 | 10 | O/NO 7.4 | |
| Oggi h: 05:50 | Coperto | 12 | 12 | 100 | 1003 | 10 | O/NO 7.4 | |
| Oggi h: 05:20 | Coperto | 12 | 12 | 100 | 1003 | 10 | N 5.5 | |
| Oggi h: 04:50 | Molto Nuvoloso | 13 | 13 | 100 | 1003 | 10 | N 3.7 | |
| Oggi h: 04:20 | Foschia | 13 | 13 | 100 | 1003 | 1 | N 3.7 | |
| Oggi h: 03:50 | Nebbia | 13 | 13 | 100 | 1002 | 0.55 | N 3.7 | |
| Oggi h: 03:20 | Coperto | 13 | 13 | 100 | 1002 | 7 | N 1.8 | |
| Oggi h: 02:50 | Coperto | 13 | 13 | 100 | 1002 | 10 | N 3.7 | |
| Oggi h: 02:20 | Pioviggine | 13 | 13 | 100 | 1002 | 10 | N 5.5 | |
| Oggi h: 01:50 | Pioviggine | 13 | 13 | 100 | 1002 | 10 | N 5.5 | |
| Oggi h: 01:20 | Coperto | 13 | 13 | 100 | 1002 | 10 | N 3.7 | |
| Oggi h: 00:50 | Coperto | 14 | 14 | 100 | 1002 | 10 | N 3.7 | |
| Oggi h: 00:20 | Coperto | 13 | 13 | 100 | 1002 | 10 | S/SE 7.4 | |
| Ieri h: 23:50 | Coperto | 13 | 13 | 100 | 1002 | 10 | S/SE 9.3 | |
| Ieri h: 23:20 | Coperto | 13 | 13 | 100 | 1002 | 10 | SE 9.3 | |
| Ieri h: 22:50 | Coperto | 13 | 13 | 100 | 1002 | 10 | E 7.4 | |
| Ieri h: 22:20 | Coperto | 14 | 14 | 100 | 1002 | 10 | S/SE 7.4 | |
| Ieri h: 21:50 | Molto Nuvoloso | 14 | 14 | 100 | 1002 | 10 | S/SE 9.3 | |



